FW9917 Weather Reports


Display with metric or nautical units.
time (UTC)temp
F
wind
direction
speed
MPH
gust
MPH
rain 1hr
in
rain 24hr
in
rain mn
in
humidity
%
barometer
mb
20260831130111 47 0 0.0 2.0 0.00 0.00 0.00 70 1020.2
20260831125557 47 0 0.0 2.0 0.00 0.00 0.00 70 1020.2
20260831125057 47 0 0.0 2.0 0.00 0.00 0.00 71 1020.3
20260831124605 47 0 0.0 2.0 0.00 0.00 0.00 71 1020.2
20260831124056 47 0 0.0 0.0 0.00 0.00 0.00 71 1020.3
20260831123557 48 0 0.0 1.0 0.00 0.00 0.00 72 1020.1
20260831123106 48 0 0.0 1.0 0.00 0.00 0.00 71 1020.2
20260831122557 48 0 0.0 1.0 0.00 0.00 0.00 72 1020.2
20260831122057 48 0 0.0 2.0 0.00 0.00 0.00 72 1020.2
20260831121605 48 0 0.0 2.0 0.00 0.00 0.00 71 1020.2
20260831121056 49 10 0.0 2.0 0.00 0.00 0.00 72 1020.1
20260831120558 49 0 0.0 1.0 0.00 0.00 0.00 68 1020.1
20260831120117 49 10 0.0 1.0 0.00 0.00 0.00 68 1020.1
20260831115557 49 0 0.0 2.0 0.00 0.00 0.00 67 1020.1
20260831115057 49 0 0.0 2.0 0.00 0.00 0.00 67 1020.2
20260831114613 49 0 0.0 2.0 0.00 0.00 0.00 68 1020.3
20260831114100 49 0 0.0 2.0 0.00 0.00 0.00 68 1020.4
20260831113557 49 0 0.0 2.0 0.00 0.00 0.00 68 1020.2
20260831113108 48 0 0.0 2.0 0.00 0.00 0.00 66 1020.3
20260831112558 48 10 0.0 2.0 0.00 0.00 0.00 68 1020.5
20260831112057 48 10 0.0 2.0 0.00 0.00 0.00 68 1020.4
20260831111607 48 0 0.0 2.0 0.00 0.00 0.00 68 1020.4
20260831111057 48 0 0.0 2.0 0.00 0.00 0.00 68 1020.4
20260831110557 48 10 0.0 2.0 0.00 0.00 0.00 68 1020.4
20260831110107 49 0 0.0 1.0 0.00 0.00 0.00 68 1020.5
20260831105556 49 10 0.0 1.0 0.00 0.00 0.00 68 1020.5
20260831105055 49 0 0.0 1.0 0.00 0.00 0.00 68 1020.6
20260831104606 49 10 0.0 1.0 0.00 0.00 0.00 72 1020.6
20260831104055 49 0 0.0 2.0 0.00 0.00 0.00 69 1020.5
20260831103554 49 0 0.0 2.0 0.00 0.00 0.00 65 1020.5
20260831103102 49 0 0.0 2.0 0.00 0.00 0.00 66 1020.6
20260831102555 49 0 0.0 2.0 0.00 0.00 0.00 66 1020.6
20260831102054 49 0 0.0 2.0 0.00 0.00 0.00 66 1020.6
20260831101604 49 10 0.0 2.0 0.00 0.00 0.00 65 1020.5
20260831101055 49 10 0.0 2.0 0.00 0.00 0.00 65 1020.7
20260831100555 49 10 0.0 1.0 0.00 0.00 0.00 66 1020.7
20260831100122 49 10 0.0 2.0 0.00 0.00 0.00 66 1020.6
20260831095557 49 0 0.0 2.0 0.00 0.00 0.00 68 1020.7
20260831095055 49 10 0.0 2.0 0.00 0.00 0.00 68 1020.7
20260831094602 49 0 0.0 1.0 0.00 0.00 0.00 68 1020.7
20260831094055 49 0 0.0 1.0 0.00 0.00 0.00 68 1020.7
20260831093556 50 0 0.0 1.0 0.00 0.00 0.00 67 1020.6
20260831093130 50 0 0.0 1.0 0.00 0.00 0.00 67 1020.7
20260831092556 50 0 0.0 2.0 0.00 0.00 0.00 67 1020.7
20260831092056 50 0 0.0 2.0 0.00 0.00 0.00 67 1020.6
20260831091605 50 0 0.0 2.0 0.00 0.00 0.00 68 1020.7
20260831091056 50 0 0.0 2.0 0.00 0.00 0.00 69 1020.7
20260831090555 51 10 0.0 2.0 0.00 0.00 0.00 67 1020.8
20260831090138 51 0 0.0 2.0 0.00 0.00 0.00 65 1020.8
20260831085559 51 0 0.0 2.0 0.00 0.00 0.00 65 1020.9
20260831085058 51 10 0.0 2.0 0.00 0.00 0.00 65 1020.8
20260831084605 51 0 0.0 2.0 0.00 0.00 0.00 65 1020.9
20260831084059 51 0 0.0 2.0 0.00 0.00 0.00 65 1020.9
20260831083555 51 10 0.0 2.0 0.00 0.00 0.00 65 1021.0
20260831083112 51 10 0.0 2.0 0.00 0.00 0.00 65 1021.0
20260831082555 51 0 0.0 1.0 0.00 0.00 0.00 65 1021.1
20260831082055 51 0 0.0 2.0 0.00 0.00 0.00 66 1021.1
20260831081605 51 0 0.0 2.0 0.00 0.00 0.00 65 1021.1
20260831081055 52 0 0.0 2.0 0.00 0.00 0.00 64 1021.1
20260831080558 52 0 0.0 2.0 0.00 0.00 0.00 64 1021.1
20260831080130 52 0 0.0 2.0 0.00 0.00 0.00 65 1021.1
20260831075556 52 0 0.0 1.0 0.00 0.00 0.00 65 1021.3
20260831075055 52 0 0.0 1.0 0.00 0.00 0.00 65 1021.4
20260831074607 52 0 0.0 1.0 0.00 0.00 0.00 65 1021.3
20260831074057 52 0 0.0 1.0 0.00 0.00 0.00 65 1021.3
20260831073557 52 0 0.0 2.0 0.00 0.00 0.00 65 1021.3
20260831073103 52 10 0.0 2.0 0.00 0.00 0.00 64 1021.3
20260831072556 53 0 0.0 2.0 0.00 0.00 0.00 64 1021.3
20260831072057 53 0 0.0 2.0 0.00 0.00 0.00 66 1021.3
20260831071606 53 0 0.0 2.0 0.00 0.00 0.00 66 1021.1
20260831071057 53 0 0.0 2.0 0.00 0.00 0.00 67 1021.3
20260831070557 53 0 0.0 2.0 0.00 0.00 0.00 67 1021.1
20260831070106 53 0 0.0 2.0 0.00 0.00 0.00 67 1021.1
20260831065557 53 0 0.0 2.0 0.00 0.00 0.00 67 1021.2
20260831065056 53 0 0.0 2.0 0.00 0.00 0.00 67 1021.3
20260831064609 53 0 0.0 2.0 0.00 0.00 0.00 67 1021.2
20260831064056 54 0 0.0 2.0 0.00 0.00 0.00 67 1021.3
20260831063558 54 0 0.0 2.0 0.00 0.00 0.00 67 1021.3
20260831063114 54 0 0.0 2.0 0.00 0.00 0.00 67 1021.4
20260831062557 54 0 0.0 2.0 0.00 0.00 0.00 67 1021.4
20260831062058 54 0 0.0 2.0 0.00 0.00 0.00 67 1021.4
20260831061608 54 0 0.0 2.0 0.00 0.00 0.00 67 1021.4
20260831061057 54 0 0.0 2.0 0.00 0.00 0.00 67 1021.5
20260831060558 55 0 0.0 1.0 0.00 0.00 0.00 67 1021.5
20260831060125 55 0 0.0 2.0 0.00 0.00 0.00 67 1021.4
20260831055557 55 0 0.0 2.0 0.00 0.00 0.00 67 1021.4
20260831055057 55 10 0.0 2.0 0.00 0.00 0.00 67 1021.5
20260831054611 55 0 0.0 2.0 0.00 0.00 0.00 67 1021.5
20260831054057 55 0 0.0 2.0 0.00 0.00 0.00 67 1021.5
20260831053555 55 0 0.0 2.0 0.00 0.00 0.00 67 1021.5
20260831053134 55 0 0.0 2.0 0.00 0.00 0.00 67 1021.6
20260831052557 55 0 0.0 1.0 0.00 0.00 0.00 67 1021.6
20260831052056 55 0 0.0 1.0 0.00 0.00 0.00 66 1021.6
20260831051623 56 0 0.0 1.0 0.00 0.00 0.00 66 1021.6
20260831051057 56 0 0.0 1.0 0.00 0.00 0.00 66 1021.6
20260831050556 56 11 0.0 1.0 0.00 0.00 0.00 66 1021.7
20260831050117 56 0 0.0 0.0 0.00 0.00 0.00 65 1021.7
20260831045557 56 0 0.0 0.0 0.00 0.00 0.00 65 1021.7
20260831045057 56 0 0.0 0.0 0.00 0.00 0.00 65 1021.7
20260831044646 57 0 0.0 0.0 0.00 0.00 0.00 65 1021.7
20260831044058 57 0 0.0 0.0 0.00 0.00 0.00 65 1021.5
20260831043558 57 0 0.0 0.0 0.00 0.00 0.00 64 1021.7
20260831043105 57 0 0.0 0.0 0.00 0.00 0.00 63 1021.6
20260831042558 58 0 0.0 0.0 0.00 0.00 0.00 62 1021.7
20260831042057 58 0 0.0 0.0 0.00 0.00 0.00 62 1021.6
20260831041617 58 0 0.0 0.0 0.00 0.00 0.00 62 1021.5
20260831041058 58 0 0.0 0.0 0.00 0.00 0.00 61 1021.4
20260831040559 59 0 0.0 0.0 0.00 0.00 0.00 61 1021.5
20260831040108 59 0 0.0 0.0 0.00 0.00 0.00 60 1021.4
20260831035557 59 0 0.0 0.0 0.00 0.00 0.00 59 1021.4
20260831035058 60 0 0.0 0.0 0.00 0.00 0.00 58 1021.3
20260831034610 60 0 0.0 0.0 0.00 0.00 0.00 58 1021.3
20260831034057 60 0 0.0 0.0 0.00 0.00 0.00 58 1021.3
20260831033557 61 0 0.0 0.0 0.00 0.00 0.00 57 1021.3
20260831033112 61 0 0.0 0.0 0.00 0.00 0.00 57 1021.1
20260831032558 62 0 0.0 0.0 0.00 0.00 0.00 56 1021.1
20260831032057 62 0 0.0 1.0 0.00 0.00 0.00 56 1021.1
20260831031604 63 0 0.0 1.0 0.00 0.00 0.00 56 1021.1
20260831031058 63 9 0.0 1.0 0.00 0.00 0.00 56 1021.0
20260831030557 64 0 0.0 1.0 0.00 0.00 0.00 56 1021.0
20260831030107 64 0 0.0 0.0 0.00 0.00 0.00 55 1021.1
20260831025602 65 0 0.0 0.0 0.00 0.00 0.00 54 1021.0
20260831025058 65 0 0.0 0.0 0.00 0.00 0.00 54 1020.9
20260831024606 66 0 0.0 1.0 0.00 0.00 0.00 53 1020.9
20260831024059 66 0 0.0 1.0 0.00 0.00 0.00 51 1020.7
20260831023557 67 0 0.0 1.0 0.00 0.00 0.00 49 1020.7
20260831023111 67 0 0.0 1.0 0.00 0.00 0.00 50 1020.7
20260831022558 68 0 0.0 2.0 0.00 0.00 0.00 49 1020.7
20260831022100 68 0 0.0 2.0 0.00 0.00 0.00 51 1020.6
20260831021611 68 0 0.0 3.0 0.00 0.00 0.00 47 1020.6
20260831021101 68 360 0.0 3.0 0.00 0.00 0.00 49 1020.6
20260831020558 68 16 0.0 5.0 0.00 0.00 0.00 47 1020.5
20260831020132 69 0 1.0 5.0 0.00 0.00 0.00 46 1020.5
20260831015556 69 15 1.0 3.0 0.00 0.00 0.00 46 1020.5
20260831015057 69 0 0.0 5.0 0.00 0.00 0.00 46 1020.6
20260831014626 70 15 0.0 5.0 0.00 0.00 0.00 44 1020.5
20260831014057 70 15 1.0 4.0 0.00 0.00 0.00 45 1020.5
20260831013557 70 0 0.0 5.0 0.00 0.00 0.00 44 1020.5
20260831013107 71 0 0.0 5.0 0.00 0.00 0.00 45 1020.4
20260831012556 71 0 1.0 5.0 0.00 0.00 0.00 45 1020.5
20260831012056 71 0 0.0 4.0 0.00 0.00 0.00 46 1020.4
20260831011603 71 0 0.0 3.0 0.00 0.00 0.00 47 1020.5
20260831011055 71 0 0.0 3.0 0.00 0.00 0.00 45 1020.5
20260831010555 72 15 1.0 5.0 0.00 0.00 0.00 42 1020.6
20260831010119 72 15 0.0 5.0 0.00 0.00 0.00 44 1020.5
20260831005556 72 0 1.0 4.0 0.00 0.00 0.00 41 1020.5
20260831005056 73 13 1.0 6.0 0.00 0.00 0.00 38 1020.5
20260831004614 74 0 1.0 7.0 0.00 0.00 0.00 40 1020.4
20260831004056 75 14 1.0 7.0 0.00 0.00 0.00 37 1020.4
20260831003558 75 15 1.0 5.0 0.00 0.00 0.00 38 1020.4
20260831003114 75 13 1.0 4.0 0.00 0.00 0.00 41 1020.4
20260831002555 75 14 1.0 4.0 0.00 0.00 0.00 40 1020.5
20260831002055 75 15 1.0 4.0 0.00 0.00 0.00 37 1020.5
20260831001606 75 15 1.0 4.0 0.00 0.00 0.00 37 1020.5
20260831001055 75 16 1.0 4.0 0.00 0.00 0.00 36 1020.5
20260831000556 76 14 1.0 3.0 0.00 0.00 0.00 34 1020.5
20260831000111 76 14 1.0 4.0 0.00 0.00 0.00 36 1020.5
20260830235556 75 14 1.0 4.0 0.00 0.00 0.00 34 1020.5
20260830235055 76 15 1.0 5.0 0.00 0.00 0.00 33 1020.5
20260830234628 76 15 1.0 5.0 0.00 0.00 0.00 32 1020.5
20260830234055 76 13 1.0 4.0 0.00 0.00 0.00 33 1020.5
20260830233555 76 14 1.0 3.0 0.00 0.00 0.00 34 1020.4
20260830233107 76 15 1.0 4.0 0.00 0.00 0.00 33 1020.5
20260830232555 75 15 1.0 7.0 0.00 0.00 0.00 31 1020.5
20260830232056 76 15 1.0 7.0 0.00 0.00 0.00 34 1020.5
20260830231612 76 14 1.0 4.0 0.00 0.00 0.00 30 1020.5
20260830231055 77 14 1.0 4.0 0.00 0.00 0.00 30 1020.6
20260830230555 76 15 1.0 5.0 0.00 0.00 0.00 32 1020.6
20260830230104 76 15 1.0 8.0 0.00 0.00 0.00 32 1020.7
20260830225555 76 13 1.0 8.0 0.00 0.00 0.00 31 1020.7
20260830225055 76 13 2.0 8.0 0.00 0.00 0.00 29 1020.8
20260830224604 76 15 1.0 5.0 0.00 0.00 0.00 31 1020.8
20260830224056 76 15 2.0 5.0 0.00 0.00 0.00 30 1020.9
20260830223555 77 16 2.0 5.0 0.00 0.00 0.00 30 1020.9
20260830223104 76 14 0.0 7.0 0.00 0.00 0.00 33 1021.0
20260830222555 76 14 1.0 7.0 0.00 0.00 0.00 33 1021.0
20260830222055 76 14 1.0 7.0 0.00 0.00 0.00 30 1021.1
20260830221609 77 15 1.0 5.0 0.00 0.00 0.00 29 1021.3
20260830221057 76 14 1.0 5.0 0.00 0.00 0.00 33 1021.3
20260830220557 76 15 1.0 5.0 0.00 0.00 0.00 31 1021.4
20260830220113 75 15 1.0 5.0 0.00 0.00 0.00 29 1021.5
20260830215558 76 15 1.0 4.0 0.00 0.00 0.00 30 1021.5
20260830215058 76 15 1.0 5.0 0.00 0.00 0.00 30 1021.5
20260830214607 75 15 1.0 5.0 0.00 0.00 0.00 33 1021.6
20260830214057 76 14 1.0 4.0 0.00 0.00 0.00 27 1021.6
20260830213557 76 15 1.0 4.0 0.00 0.00 0.00 28 1021.7
20260830213115 77 14 1.0 4.0 0.00 0.00 0.00 29 1021.7
20260830212557 77 13 1.0 4.0 0.00 0.00 0.00 28 1021.8
20260830212058 78 14 1.0 3.0 0.00 0.00 0.00 30 1021.8
20260830211609 78 14 0.0 2.0 0.00 0.00 0.00 30 1021.9
20260830211057 77 15 0.0 3.0 0.00 0.00 0.00 30 1021.9
20260830210558 76 15 0.0 3.0 0.00 0.00 0.00 29 1021.8
20260830210105 77 0 1.0 3.0 0.00 0.00 0.00 27 1021.9
20260830205601 77 0 0.0 3.0 0.00 0.00 0.00 29 1021.9
20260830205058 76 13 0.0 3.0 0.00 0.00 0.00 27 1022.0
20260830204604 76 15 1.0 3.0 0.00 0.00 0.00 27 1021.9
20260830204057 76 13 0.0 3.0 0.00 0.00 0.00 26 1021.9
20260830203557 75 14 1.0 3.0 0.00 0.00 0.00 27 1021.9
20260830203106 75 13 1.0 3.0 0.00 0.00 0.00 26 1022.0
20260830202559 75 15 1.0 3.0 0.00 0.00 0.00 28 1022.0
20260830202058 74 15 1.0 4.0 0.00 0.00 0.00 24 1022.1
20260830201609 74 12 1.0 4.0 0.00 0.00 0.00 25 1022.0
20260830201058 74 15 0.0 4.0 0.00 0.00 0.00 26 1022.0
20260830200557 74 13 1.0 3.0 0.00 0.00 0.00 25 1021.9
20260830200107 74 13 0.0 4.0 0.00 0.00 0.00 28 1021.9
20260830195557 73 15 1.0 4.0 0.00 0.00 0.00 25 1022.0
20260830195101 73 12 1.0 4.0 0.00 0.00 0.00 27 1022.1
20260830194609 73 0 1.0 3.0 0.00 0.00 0.00 27 1022.0
20260830194057 73 0 0.0 3.0 0.00 0.00 0.00 27 1022.1
20260830193558 72 15 1.0 4.0 0.00 0.00 0.00 26 1022.0
20260830193106 71 0 1.0 4.0 0.00 0.00 0.00 30 1022.1
20260830192557 70 15 1.0 4.0 0.00 0.00 0.00 26 1022.2
20260830192057 70 14 1.0 5.0 0.00 0.00 0.00 27 1022.2
20260830191606 71 14 1.0 5.0 0.00 0.00 0.00 25 1022.3
20260830191059 71 14 2.0 5.0 0.00 0.00 0.00 25 1022.4
20260830190557 71 15 1.0 4.0 0.00 0.00 0.00 26 1022.3
20260830190103 71 15 0.0 3.0 0.00 0.00 0.00 30 1022.4
20260830185557 71 0 1.0 3.0 0.00 0.00 0.00 27 1022.4
20260830185058 71 15 1.0 3.0 0.00 0.00 0.00 28 1022.4
20260830184606 71 15 0.0 3.0 0.00 0.00 0.00 30 1022.5
20260830184056 70 14 1.0 3.0 0.00 0.00 0.00 34 1022.5
20260830183557 70 0 1.0 3.0 0.00 0.00 0.00 28 1022.6
20260830183103 70 15 0.0 4.0 0.00 0.00 0.00 35 1022.6
20260830182558 69 0 1.0 4.0 0.00 0.00 0.00 31 1022.5
20260830182057 69 15 1.0 4.0 0.00 0.00 0.00 33 1022.6
20260830181605 68 14 0.0 4.0 0.00 0.00 0.00 39 1022.5
20260830181057 68 15 0.0 3.0 0.00 0.00 0.00 40 1022.5
20260830180557 67 15 0.0 3.0 0.00 0.00 0.00 40 1022.6
20260830180108 67 15 0.0 3.0 0.00 0.00 0.00 45 1022.6
20260830175557 66 14 1.0 3.0 0.00 0.00 0.00 47 1022.5
20260830175057 66 15 0.0 3.0 0.00 0.00 0.00 44 1022.6
20260830174617 65 0 0.0 4.0 0.00 0.00 0.00 49 1022.6
20260830174057 64 0 1.0 4.0 0.00 0.00 0.00 50 1022.6
20260830173556 64 15 0.0 3.0 0.00 0.00 0.00 48 1022.5
20260830173104 64 0 0.0 3.0 0.00 0.00 0.00 49 1022.5
20260830172558 63 14 0.0 2.0 0.00 0.00 0.00 51 1022.6
20260830172057 62 0 0.0 2.0 0.00 0.00 0.00 52 1022.6
20260830171609 62 14 0.0 2.0 0.00 0.00 0.00 48 1022.5
20260830171058 62 15 0.0 3.0 0.00 0.00 0.00 53 1022.4
20260830170559 61 0 0.0 3.0 0.00 0.00 0.00 53 1022.4
20260830170110 61 0 0.0 2.0 0.00 0.00 0.00 54 1022.4
20260830165558 60 0 0.0 2.0 0.00 0.00 0.00 53 1022.4
20260830165100 60 0 0.0 2.0 0.00 0.00 0.00 54 1022.4
20260830164605 59 15 0.0 2.0 0.00 0.00 0.00 56 1022.4
20260830164057 58 0 0.0 2.0 0.00 0.00 0.00 56 1022.5
20260830163557 58 0 0.0 2.0 0.00 0.00 0.00 56 1022.4
20260830163106 57 0 0.0 2.0 0.00 0.00 0.00 55 1022.3
20260830162558 57 15 0.0 2.0 0.00 0.00 0.00 55 1022.4
20260830162058 56 15 0.0 1.0 0.00 0.00 0.00 58 1022.3
20260830161622 55 0 0.0 1.0 0.00 0.00 0.00 63 1022.4
20260830161057 54 0 0.0 0.0 0.00 0.00 0.00 63 1022.5
20260830160557 53 0 0.0 0.0 0.00 0.00 0.00 65 1022.4
20260830160107 53 0 0.0 0.0 0.00 0.00 0.00 64 1022.4
20260830155558 52 0 0.0 0.0 0.00 0.00 0.00 65 1022.5
20260830155058 52 0 0.0 0.0 0.00 0.00 0.00 64 1022.5
20260830154607 51 0 0.0 0.0 0.00 0.00 0.00 65 1022.5
20260830154057 51 0 0.0 0.0 0.00 0.00 0.00 66 1022.5
20260830153557 50 0 0.0 1.0 0.00 0.00 0.00 63 1022.5
20260830153114 49 0 0.0 1.0 0.00 0.00 0.00 61 1022.5
20260830152557 49 0 0.0 1.0 0.00 0.00 0.00 62 1022.5
20260830152057 48 0 0.0 0.0 0.00 0.00 0.00 64 1022.3
20260830151610 48 0 0.0 1.0 0.00 0.00 0.00 64 1022.4
20260830151058 47 0 0.0 1.0 0.00 0.00 0.00 64 1022.4
20260830150558 47 0 0.0 1.0 0.00 0.00 0.00 63 1022.4
20260830150121 46 0 0.0 1.0 0.00 0.00 0.00 63 1022.4
20260830145557 46 0 0.0 1.0 0.00 0.00 0.00 63 1022.5
20260830145057 45 0 0.0 2.0 0.00 0.00 0.00 63 1022.5
20260830144609 45 0 0.0 2.0 0.00 0.00 0.00 63 1022.5
20260830144058 45 84 0.0 2.0 0.00 0.00 0.00 63 1022.5
20260830143557 45 0 0.0 2.0 0.00 0.00 0.00 62 1022.4
20260830143102 45 84 0.0 1.0 0.00 0.00 0.00 62 1022.4
20260830142557 45 84 0.0 1.0 0.00 0.00 0.00 62 1022.5
20260830142058 44 0 0.0 1.0 0.00 0.00 0.00 62 1022.4
20260830141608 44 0 0.0 2.0 0.00 0.00 0.00 61 1022.4
20260830141057 44 0 0.0 2.0 0.00 0.00 0.00 61 1022.3
20260830140557 44 0 0.0 2.0 0.00 0.00 0.00 62 1022.2
20260830140109 44 0 0.0 2.0 0.00 0.00 0.00 61 1022.1
20260830135557 44 0 0.0 2.0 0.00 0.00 0.00 61 1022.1
20260830135057 44 84 0.0 1.0 0.00 0.00 0.00 61 1022.0
20260830134607 44 0 0.0 1.0 0.00 0.00 0.00 60 1022.0
20260830134056 44 84 0.0 2.0 0.00 0.00 0.00 60 1021.9
20260830133557 44 0 0.0 2.0 0.00 0.00 0.00 59 1021.9
20260830133109 45 0 0.0 2.0 0.00 0.00 0.00 60 1021.9
20260830132557 45 0 0.0 2.0 0.00 0.00 0.00 58 1021.7
20260830132057 45 78 0.0 2.0 0.00 0.00 0.00 59 1021.9
20260830131605 45 0 0.0 2.0 0.00 0.00 0.00 58 1021.7
20260830131057 45 80 0.0 2.0 0.00 0.00 0.00 59 1021.6
20260830130557 45 0 0.0 4.0 0.00 0.00 0.00 59 1021.7